Location: Newark
(15.4608°S, 41.1635°W)
Time: 00:54:59
(UTC+00:00)

Courier 1B Rocket - All Passes

Search period start: 31 July 2021 00:00
Search period end: 10 August 2021 00:00
Orbit: 920 x 1202 km, 28.2° (Epoch: 30 July)

Date Brightness Start Highest point End Pass type
(mag) Time Alt. Az. Time Alt. Az. Time Alt. Az.
31 Jul - 00:02:58 10° W 00:10:09 41° NNW 00:16:57 10° NE visible
31 Jul - 02:03:06 10° NW 02:03:39 10° NNW 02:04:11 10° NNW night (unlit)
31 Jul - 11:40:59 10° N 11:43:37 13° NNE 11:46:18 10° ENE daylight
31 Jul - 13:30:26 10° NW 13:36:51 51° NNE 13:43:46 10° ESE daylight
31 Jul - 15:23:39 10° W 15:30:32 59° SSW 15:37:57 10° ESE daylight
31 Jul - 17:18:33 10° WSW 17:25:06 33° S 17:31:58 10° SE daylight
31 Jul - 19:13:22 10° SW 19:20:10 33° S 19:27:06 10° ESE daylight
31 Jul - 21:07:13 10° WSW 21:14:55 56° SSE 21:22:30 10° E visible
31 Jul - 23:01:12 10° WSW 23:08:55 60° NNW 23:16:18 10° NE visible
01 Aug - 00:57:39 10° WNW 01:02:26 18° NNW 01:07:04 10° N visible
01 Aug - 12:30:06 10° NNW 12:35:50 33° NNE 12:41:55 10° E daylight
01 Aug - 14:22:27 10° WNW 14:29:14 78° SSW 14:36:35 10° ESE daylight
01 Aug - 16:16:57 10° WSW 16:23:29 37° SSW 16:30:26 10° SE daylight
01 Aug - 18:11:56 10° WSW 18:18:26 31° S 18:25:11 10° ESE daylight
01 Aug - 20:05:58 10° SW 20:13:21 44° SSE 20:20:46 10° E daylight
01 Aug - 21:59:41 10° WSW 22:07:35 84° NNW 22:15:18 10° ENE visible
01 Aug - 23:54:52 10° W 00:01:14 28° NNW 00:07:22 10° NNE visible
02 Aug - 11:30:14 10° NNW 11:34:50 21° NNE 11:39:39 10° E daylight
02 Aug - 13:21:31 10° WNW 13:28:04 76° NNE 13:35:10 10° ESE daylight
02 Aug - 15:15:25 10° W 15:21:58 44° SSW 15:29:01 10° SE daylight
02 Aug - 17:10:25 10° WSW 17:16:43 30° S 17:23:21 10° ESE daylight
02 Aug - 19:04:44 10° SW 19:11:43 37° SSE 19:18:52 10° ESE daylight
02 Aug - 20:58:21 10° WSW 21:06:11 74° SSE 21:14:00 10° ENE visible
02 Aug - 22:52:44 10° W 23:00:00 41° NNW 23:07:03 10° NE visible
03 Aug - 00:52:10 10° NW 00:53:38 11° NNW 00:55:05 10° NNW visible
03 Aug - 10:31:26 10° N 10:33:50 12° NNE 10:36:16 10° NE daylight
03 Aug - 12:20:51 10° NW 12:27:02 51° NNE 12:33:37 10° ESE daylight
03 Aug - 14:14:04 10° W 14:20:36 56° SSW 14:27:41 10° ESE daylight
03 Aug - 16:08:52 10° WSW 16:15:04 32° S 16:21:39 10° SE daylight
03 Aug - 18:03:29 10° SW 18:10:03 32° S 18:16:52 10° ESE daylight
03 Aug - 19:57:09 10° WSW 20:04:43 57° SSE 20:12:25 10° E daylight
03 Aug - 21:51:01 10° WSW 21:58:43 60° NNW 22:06:19 10° NE visible
03 Aug - 23:47:24 10° WNW 23:52:21 18° NNW 23:57:12 10° N visible
04 Aug - 11:20:30 10° NNW 11:26:03 33° NNE 11:31:52 10° E daylight
04 Aug - 13:12:53 10° WNW 13:19:23 76° SSW 13:26:22 10° ESE daylight
04 Aug - 15:07:21 10° WSW 15:13:31 35° SSW 15:20:08 10° SE daylight
04 Aug - 17:02:11 10° SW 17:08:22 30° S 17:14:54 10° ESE daylight
04 Aug - 18:56:00 10° SW 19:03:11 45° SSE 19:10:36 10° E daylight
04 Aug - 20:49:34 10° WSW 20:57:23 82° NNW 21:05:14 10° ENE visible
04 Aug - 22:44:40 10° W 22:51:05 28° NNW 22:57:24 10° NNE visible
05 Aug - 10:20:36 10° NNW 10:25:06 21° NNE 10:29:43 10° ENE daylight
05 Aug - 12:11:57 10° WNW 12:18:17 77° NNE 12:25:02 10° ESE daylight
05 Aug - 14:05:52 10° W 14:12:05 42° SSW 14:18:45 10° SE daylight
05 Aug - 16:00:47 10° WSW 16:06:44 29° S 16:13:02 10° ESE daylight
05 Aug - 17:54:54 10° SW 18:01:36 37° SSE 18:08:38 10° ESE daylight
05 Aug - 19:48:19 10° WSW 19:55:59 75° SSE 20:03:51 10° ENE daylight
05 Aug - 21:42:36 10° W 21:49:48 41° NNW 21:57:00 10° NE visible
05 Aug - 23:41:48 10° NW 23:43:34 11° NNW 23:45:18 10° NNW visible
06 Aug - 09:21:41 10° N 09:24:06 12° NNE 09:26:31 10° NE daylight
06 Aug - 11:11:14 10° NW 11:17:17 51° NNE 11:23:36 10° ESE daylight
06 Aug - 13:04:31 10° W 13:10:47 54° SSW 13:17:30 10° ESE daylight
06 Aug - 14:59:19 10° WSW 15:05:09 30° S 15:11:21 10° SE daylight
06 Aug - 16:53:45 10° SW 16:59:59 31° S 17:06:35 10° ESE daylight
06 Aug - 18:47:13 10° WSW 18:54:33 57° SSE 19:02:12 10° E daylight
06 Aug - 20:40:57 10° WSW 20:48:30 58° NNW 20:56:11 10° NE visible
06 Aug - 22:37:15 10° WNW 22:42:13 18° NNW 22:47:09 10° N visible
07 Aug - 10:10:50 10° NNW 10:16:21 33° NNE 10:21:58 10° E daylight
07 Aug - 12:03:20 10° WNW 12:09:38 74° SSW 12:16:17 10° ESE daylight
07 Aug - 13:57:49 10° WSW 14:03:40 34° SSW 14:09:53 10° SE daylight
07 Aug - 15:52:34 10° SW 15:58:24 28° S 16:04:36 10° ESE daylight
07 Aug - 17:46:12 10° SW 17:53:04 44° SSE 18:00:21 10° E daylight
07 Aug - 19:39:36 10° WSW 19:47:11 81° NNW 19:55:02 10° ENE daylight
07 Aug - 21:34:35 10° W 21:40:54 27° NNW 21:47:16 10° NNE visible
08 Aug - 09:10:51 10° NNW 09:15:24 21° NNE 09:19:57 10° ENE daylight
08 Aug - 11:02:20 10° WNW 11:08:35 78° NNE 11:15:04 10° ESE daylight
08 Aug - 12:56:22 10° W 13:02:18 40° SSW 13:08:36 10° SE daylight
08 Aug - 14:51:14 10° WSW 14:56:50 27° S 15:02:46 10° SE daylight
08 Aug - 16:45:12 10° SW 16:51:34 36° SSE 16:58:21 10° ESE daylight
08 Aug - 18:38:27 10° WSW 18:45:49 76° SSE 18:53:36 10° ENE daylight
08 Aug - 20:32:37 10° W 20:39:37 40° NNW 20:46:48 10° NE daylight
08 Aug - 22:31:50 10° NW 22:33:27 11° NNW 22:35:05 10° NNW visible
09 Aug - 08:11:41 10° N 08:14:23 13° NNE 08:17:03 10° ENE visible
09 Aug - 10:01:35 10° NW 10:07:37 52° NNE 10:13:45 10° ESE daylight
09 Aug - 11:54:58 10° W 12:01:04 52° SSW 12:07:26 10° SE daylight
09 Aug - 13:49:49 10° WSW 13:55:19 29° S 14:01:09 10° SE daylight
09 Aug - 15:44:09 10° SW 15:50:03 30° S 15:56:18 10° ESE daylight
09 Aug - 17:37:27 10° WSW 17:44:27 57° SSE 17:51:56 10° E daylight
09 Aug - 19:31:03 10° WSW 19:38:20 57° NNW 19:45:56 10° NE daylight
09 Aug - 21:27:17 10° WNW 21:32:05 17° NNW 21:36:55 10° N visible
